Location: Gellin
(53.4498°N, 14.3207°E)
Time: 22:29:25
(UTC+00:00)

Cosmos 1666 - Pass Details

Date: 03 March 2021
Orbit: 497 x 518 km, 82.5° (Epoch: 12 April)

Event Time Altitude Azimuth Distance (km) Brightness Sun altitude
Rises 18:30:11 0° 180° (S) 2,577 6.1 -16.4°
Reaches altitude 10° 18:32:18 10° 177° (S) 1,700 5.2 -16.7°
Maximum altitude 18:35:58 60° 97° (E) 581 2.6 -17.3°
Drops below altitude 10° 18:39:40 10° 18° (NNE) 1,721 5.3 -17.8°
Sets 18:41:49 0° 14° (NNE) 2,614 6.3 -18.1°
